Weather History for Yellowstone, WY

Change the Weather History Date:

Tuesday, March 26, 2013

  Actual Average Record
Temperature  
Mean Temperature 15 °F 26 °F  
Max Temperature 36 °F 40 °F 48 °F (2007)
Min Temperature -6 °F 12 °F -6 °F (2013)
Degree Days  
Heating Degree Days 50 39  
Month to date heating degree days 1216 1110  
Since 1 July heating degree days 9083 9047  
Cooling Degree Days 0 0  
Month to date cooling degree days 0 0  
Year to date cooling degree days 0 0  
Moisture  
Dew Point 9 °F    
Average Humidity 72    
Maximum Humidity 88    
Minimum Humidity 56    
Precipitation  
Precipitation 0.02 in 0.05 in 0.61 in (2014)
Month to date precipitation 2.08 0.97  
Year to date precipitation 4.42 4.49  
Sea Level Pressure  
Sea Level Pressure 30.19 in    
Wind  
Wind Speed 1 mph (ESE)    
Max Wind Speed 8 mph    
Max Gust Speed 12 mph    
T = Trace of Precipitation, MM = Missing Value Source: NWS Daily Summary

Daily Weather History Graph

Daily Weather History Graph

Search for Another Location

Airport:

Trip Planner

Search our weather history database for the weather conditions in past years. The results will help you decide how hot, cold, wet, or windy it might be!

Date:

Astronomy

Mar. 26, 2013 Rise Set
Actual Time 7:13 AM MDT 7:42 PM MDT
Civil Twilight 6:43 AM MDT 8:11 PM MDT
Nautical Twilight 6:09 AM MDT 8:45 PM MDT
Astronomical Twilight 5:33 AM MDT 9:21 PM MDT
Moon 7:23 PM MDT (3/26) 6:32 AM MDT (3/26)
Length of Visible Light 13h 27m
Length of Day
12h 28m
Waxing Gibbous, 99% of the Moon is Illuminated
Mar 26
Waxing Gibbous
Mar 27
Full
Apr 2
Last Quarter
Apr 10
New
Apr 18
First Quarter

Hourly Weather History & Observations

Time (MDT) Temp. Windchill Dew Point Humidity Pressure Visibility Wind Dir Wind Speed Gust Speed Precip Events Conditions
12:56 AM -2.9 °F - -8.0 °F 79% 30.35 in - Calm Calm - N/A   Unknown
1:56 AM -4.0 °F - -9.0 °F 79% 30.32 in - Calm Calm - N/A   Unknown
2:56 AM -0.9 °F - -7.1 °F 75% 30.23 in - Calm Calm - N/A   Unknown
3:56 AM -2.9 °F - -8.0 °F 79% 30.21 in - Calm Calm - N/A   Unknown
4:56 AM 1.0 °F - -4.0 °F 79% 30.17 in - Calm Calm - N/A   Unknown
5:56 AM 1.0 °F - -4.0 °F 79% 30.19 in - Calm Calm - N/A   Unknown
6:56 AM 3.9 °F - -0.9 °F 80% 30.19 in - Calm Calm - N/A   Unknown
7:56 AM 6.1 °F - 1.9 °F 83% 30.23 in - Calm Calm - 0.01 in   Unknown
8:56 AM 8.1 °F - 3.0 °F 80% 30.26 in - Calm Calm - 0.01 in   Unknown
9:56 AM 12.9 °F - 6.1 °F 74% 30.24 in - Calm Calm - N/A   Unknown
10:56 AM 17.1 °F - 8.1 °F 68% 30.22 in - Calm Calm - N/A   Unknown
11:56 AM 18.0 °F - 10.0 °F 71% 30.23 in - Calm Calm - N/A   Unknown
12:56 PM 23.0 °F 17.0 °F 12.9 °F 65% 30.21 in - East 4.6 mph - N/A   Unknown
1:56 PM 28.9 °F 21.9 °F 16.0 °F 58% 30.17 in - East 6.9 mph - N/A   Unknown
2:56 PM 30.9 °F 25.2 °F 19.0 °F 61% 30.13 in - ESE 5.8 mph - N/A   Unknown
3:56 PM 33.1 °F 30.0 °F 19.0 °F 56% 30.13 in - Variable 3.5 mph - N/A   Unknown
4:56 PM 33.1 °F - 23.0 °F 66% 30.10 in - Calm Calm - N/A   Unknown
5:56 PM 33.1 °F 30.0 °F 24.1 °F 70% 30.11 in - Variable 3.5 mph - N/A   Unknown
6:56 PM 32.0 °F - 24.1 °F 73% 30.10 in - Calm Calm - N/A   Unknown
7:56 PM 27.0 °F - 21.9 °F 81% 30.12 in - Calm Calm - N/A   Unknown
8:56 PM 26.1 °F - 21.0 °F 81% 30.14 in - Calm Calm - N/A   Unknown
9:56 PM 21.9 °F - 18.0 °F 85% 30.14 in - Calm Calm - N/A   Unknown
10:56 PM 19.0 °F - 14.0 °F 81% 30.15 in - Calm Calm - N/A   Unknown
11:56 PM 14.0 °F - 10.9 °F 88% 30.19 in - Calm Calm - N/A   Unknown